Location: Bosdarros
(43.2167°N, 0.3667°W)
Time: 08:07:45
(UTC+00:00)

Cosmos 1023 Rocket - Pass Details

Date: 22 April 2021
Orbit: 736 x 772 km, 74.1° (Epoch: 07 May)

Event Time Altitude Azimuth Distance (km) Brightness Sun altitude
Rises 20:03:10 0° 186° (S) 3,155 7.4 -12.5°
Reaches altitude 10° 20:05:32 10° 182° (S) 2,235 6.6 -12.9°
Maximum altitude 20:10:28 56° 105° (ESE) 878 4.5 -13.6°
Drops below altitude 10° 20:15:26 10° 29° (NNE) 2,253 7.0 -14.4°
Sets 20:17:50 0° 25° (NNE) 3,182 7.8 -14.8°
